Utilizamos cookies propias y de terceros para mejorar su experiencia y nuestros servicios, analizando la navegación en nuestro Sitio Web. Si continúa navegando, usted está aceptando su uso. Puede obtener más información en nuestra Política de cookies. OK

En vivo: Cros de Sant Joan 6 Km

Cros de Sant Joan 6 Km

Resultados provisionales

Puede que algún punto de control no tenga conexión a internet o la tenga deficiente.

En este caso los pasos no se podrán visualizar en directo e irán apareciendo a medida que sean transmitidos desde los puntos de control.

Arribada - Arribada


0
Pendientes

58
Han pasado

Hombres

# - Posició P.C. - Participant Temps Dorsal

1 - 1 - ALBERT FUMANYA SALVANS 00:20:28 58

2 - 2 - MARTI COSTA YLLA 00:20:30 28

3 - 3 - SERGI ARIACA CAMPENY ARIACA CAMPENY 00:20:55 34

4 - 4 - XAVIER MONTOLIO POVEDANO 00:20:59 25

5 - 5 - ALBERT FERRER SOLER 00:21:18 43

6 - 6 - ALBERT COSTA LLOBET 00:21:30 53

7 - 7 - RAMON COROMINAS SANTANACH 00:21:40 23

8 - 8 - LLUIS MAURI VIVET 00:22:27 41

9 - 9 - JOSEP CASTANE PARERA 00:22:45 11

10 - 10 - ADRIà NOGUERA 00:22:49 18

11 - 11 - CARLES RODRIGUEZ SALINAS RODRIGUEZ SALINAS 00:23:08 61

12 - 12 - JOAN CASAS VALL 00:23:20 60

13 - 13 - JORDI PORTELL PUJOL 00:23:39 1

14 - 14 - AHMED BOUJLOUD 00:24:09 38

15 - 15 - MARC CUESTA GOMEZ 00:24:17 56

16 - 17 - JOSEP VILÀ CARRETER 00:24:35 39

17 - 18 - MARC RIERA BAILEN 00:25:02 7

18 - 19 - MARC CASAS VALL 00:25:09 55

19 - 20 - MARC PEREZ HERRADOR 00:25:32 48

20 - 21 - ERNEST PALAU VILA 00:25:32 49

21 - 22 - ROGER BOU PRAT 00:25:39 59

22 - 23 - JORDI ROVIRA SERRA 00:26:12 52

23 - 24 - OSCAR PEREZ GARCIA 00:26:18 26

24 - 25 - ARNAU VILARó COLL 00:27:08 33

25 - 28 - DANIEL LOPEZ AMOROS 00:27:49 50

26 - 30 - ALEX ORTEGA YESPES 00:28:01 10

27 - 32 - ALBERT TORRES CARLES 00:28:10 4

28 - 37 - MARTí VILARó COLL 00:28:52 32

29 - 38 - TON FALGUERA PLANS 00:29:44 3

30 - 40 - ANTONI ROCA OLIVER 00:30:47 15

31 - 42 - XAVIER NUALART RIBA RIBA 00:31:28 46

32 - 46 - GUERAU FORNELL CAMPRUBí 00:32:39 20

33 - 47 - LLUC TORRAS FORNELL 00:32:40 21

34 - 48 - DAVID FORNELL SOLà 00:32:41 17

35 - 50 - LLUIS TUNEU ARXER 00:33:17 12

36 - 51 - JAUME TERMES ASENSIO 00:33:19 5

37 - 52 - POL MAJORAL FRANQUESA 00:33:53 31

38 - 57 - ORIOL MARTíNEZ HUGUET 00:45:02 62

39 - 58 - JOSEP MARTINEZ TULLEUDA 00:45:38 63

Mujeres

# - Posició P.C. - Participant Temps Dorsal

1 - 16 - ANNA PALLARèS SADó 00:24:27 13

2 - 26 - MIREIA MAURI VIVET 00:27:15 54

3 - 27 - ANNA VILà BERENGUERAS 00:27:48 57

4 - 29 - ANGELINA SOLER SOBRÉ 00:27:53 37

5 - 31 - NATàLIA SANJUAN VIVET 00:28:01 9

6 - 33 - ELISABET ROCADEMBOSCH ROCADEMBOSCH 00:28:31 22

7 - 34 - MARTA ROSET 00:28:38 29

8 - 35 - CRISTINA LóPEZ MARTIN 00:28:38 30

9 - 36 - SYLVIE GERALDINE LÓPEZ 00:28:42 27

10 - 39 - QUERALT SAÑAS CAPDEVILA 00:29:45 19

11 - 41 - IRENE GARCIA CLAVEL 00:31:19 40

12 - 43 - BERTA BASSAS TUNEU 00:31:33 24

13 - 44 - CARLA FABREGAS NOGUERA 00:32:02 36

14 - 45 - MONTSE ROS DEPORTOS 00:32:28 16

15 - 49 - SILVIA SANCHEZ VICENTE 00:32:57 64

16 - 53 - LURDES SOLANAS SERRA 00:34:31 35

17 - 54 - MIREIA PLANS PUJALS 00:35:40 2

18 - 55 - PILAR ARUMí 00:37:30 42

19 - 56 - CARME ESCUDé 00:40:39 47

Publicidad